Location: Lewisville
(33.0462°N, 96.9942°W)
Time: 23:30:40
(UTC-05:00)

Envisat - Pass Details

Date: 09 January 2020
Orbit: 764 x 766 km, 98.2° (Epoch: 03 August)

Event Time Altitude Azimuth Distance (km) Brightness Sun altitude
Rises 06:51:40 0° 16° (NNE) 3,236 6.2 -8.6°
Reaches altitude 10° 06:54:00 10° 19° (NNE) 2,307 5.5 -8.1°
Maximum altitude 06:59:03 64° 101° (E) 844 3.6 -7.1°
Drops below altitude 10° 07:04:04 10° 183° (S) 2,294 5.7 -6.1°
Sets 07:06:23 0° 186° (S) 3,217 6.5 -5.7°
